Flight Track Log - Related Links

Times and Time Zones

All times are in EDT time to prevent confusion due to time zone crossing. See the FLG3735 flight status page for this flight to view local times or setup timezone preferences in your user account.

Time Position Orientation Groundspeed Altitude Reporting Facility
EDT Latitude Longitude Course Direction KTS MPH feet Rate Location/Type
Sun 19:43:25 42.2314 -83.3342 82° East 164 189 1,200  Level Cleveland Center
Sun 19:43:55 42.2525 -83.3183 29° Northeast 183 211 2,300 2,176 Climbing Cleveland Center
Sun 19:44:56 42.3036 -83.2756 32° Northeast 225 259 4,500 2,213 Climbing Cleveland Center
Sun 19:45:57 42.3511 -83.2044 48° Northeast 269 310 6,800 2,613 Climbing Cleveland Center
Sun 19:46:00 42.2793 -82.9327 71° East  Level FlightAware Approximate
Sun 19:47:00 42.3079 -82.7942 75° East  Level FlightAware Approximate
Sun 19:47:00 42.3533 -83.1036 88° East 271 312 9,900  Level Cleveland Center
Sun 19:48:00 42.3264 -82.6527 82° East  Level FlightAware Approximate
Sun 19:48:00 42.3556 -82.9967 88° East 271 312 12,500  Level Cleveland Center
Sun 19:49:00 42.3581 -82.8844 88° East 279 321 13,900 1,500 Climbing Cleveland Center
Sun 19:50:00 42.3606 -82.7525 88° East 315 362 15,500 1,550 Climbing Cleveland Center
Sun 19:51:00 42.3650 -82.6178 87° East 343 395 17,000 1,450 Climbing Cleveland Center
Sun 19:52:00 42.3675 -82.4800 89° East 356 410 18,400 1,300 Climbing Cleveland Center
Sun 19:53:00 42.3633 -82.3394 92° East 366 421 19,600 1,100 Climbing Cleveland Center
Sun 19:54:00 42.3550 -82.1989 95° East 366 421 20,600 900 Climbing Cleveland Center
Sun 19:55:00 42.3506 -82.0667 93° East 378 435 21,400 950 Climbing Cleveland Center
Sun 19:56:00 42.3442 -81.9203 93° East 384 442 22,500 1,000 Climbing Cleveland Center
Sun 19:57:00 42.3375 -81.7686 93° East 396 456 23,400 700 Climbing Cleveland Center
Sun 19:58:00 42.3325 -81.6167 92° East 401 461 23,900 500 Climbing Cleveland Center
Sun 19:59:00 42.3256 -81.4453 93° East 406 467 24,400 500 Climbing Cleveland Center
Sun 20:00:00 42.3164 -81.2853 94° East 415 478 24,900 600 Climbing Cleveland Center
Sun 20:01:00 42.3089 -81.1278 94° East 422 486 25,600 850 Climbing Cleveland Center
Sun 20:02:00 42.2992 -80.9678 95° East 420 483 26,600 750 Climbing Cleveland Center
Sun 20:03:00 42.2911 -80.8078 94° East 420 483 27,100 500 Climbing Cleveland Center
Sun 20:04:00 42.2831 -80.6478 94° East 431 496 27,600 500 Climbing Cleveland Center
Sun 20:05:00 42.2747 -80.4794 94° East 431 496 28,100 500 Climbing Cleveland Center
Sun 20:06:00 42.2639 -80.3167 95° East 431 496 28,600 450 Climbing Cleveland Center
Sun 20:07:00 42.2572 -80.1681 93° East 438 504 29,000 200 Climbing Cleveland Center
Sun 20:08:00 42.2442 -79.9997 96° East 447 514 29,000  Level Cleveland Center
Sun 20:09:00 42.2347 -79.8289 94° East 453 521 29,000  Level Cleveland Center
Sun 20:10:00 42.2231 -79.6581 95° East 458 527 29,000  Level Cleveland Center
Sun 20:11:00 42.2111 -79.4842 95° East 458 527 29,000  Level Cleveland Center
Sun 20:12:00 42.2011 -79.3106 94° East 458 527 29,000  Level Cleveland Center
Sun 20:13:00 42.1906 -79.1400 95° East 458 527 29,000  Level Cleveland Center
Sun 20:14:00 42.2092 -78.9686 82° East 458 527 29,000  Level Cleveland Center
Sun 20:15:00 42.2317 -78.7969 80° East 464 534 29,000  Level Cleveland Center
Sun 20:16:00 42.2519 -78.6281 81° East 464 534 29,000  Level Cleveland Center
Sun 20:17:00 42.2739 -78.4533 80° East 464 534 29,000  Level Cleveland Center
Sun 20:18:00 42.2936 -78.2842 81° East 464 534 29,000  Level Cleveland Center
Sun 20:19:00 42.3150 -78.1150 80° East 464 534 29,000  Level Cleveland Center
Sun 20:20:00 42.3342 -77.9400 82° East 464 534 29,000  Level Cleveland Center
Sun 20:21:00 42.3550 -77.7706 80° East 464 534 29,000  Level Cleveland Center
Sun 20:22:00 42.3756 -77.5953 81° East 464 534 29,000  Level Cleveland Center
Sun 20:23:00 42.3961 -77.4228 81° East 464 534 29,000  Level Cleveland Center
Sun 20:24:38 42.4289 -77.1214 82° East 455 524 29,000  Level Boston Center
Sun 20:25:38 42.4483 -76.9486 81° East 461 531 29,000  Level Boston Center
Sun 20:26:38 42.4675 -76.7781 81° East 461 531 29,000  Level Boston Center
Sun 20:27:38 42.4844 -76.6047 82° East 461 531 29,000  Level Boston Center
Sun 20:28:38 42.5031 -76.4339 82° East 461 531 29,000  Level Boston Center
Sun 20:29:38 42.5194 -76.2631 83° East 461 531 29,000 -750 Level Boston Center
Sun 20:30:38 42.5375 -76.0922 82° East 461 531 27,500 -1,650 Descending Boston Center
Sun 20:31:38 42.5553 -75.9297 81° East 451 519 25,700 -1,750 Descending Boston Center
Sun 20:32:38 42.5725 -75.7728 81° East 438 504 24,000 -1,773 Descending Boston Center
Sun 20:33:50 42.5881 -75.5875 83° East 416 479 21,800 -1,667 Descending Boston Center
Sun 20:35:02 42.6025 -75.4386 82° East 405 466 20,000 -1,818 Descending Boston Center
Sun 20:36:02 42.6236 -75.2647 81° East 400 460 17,800 -1,727 Descending Boston Center
Sun 20:37:14 42.6561 -75.1278 72° East 389 448 16,200 -1,682 Descending Boston Center
Sun 20:38:14 42.6975 -74.9658 71° East 377 434 14,100 -2,026 Descending Boston Center
Sun 20:38:31 42.7025 -74.9319 79° East 381 438 13,600 -1,714 Descending Boston Center
Sun 20:38:49 42.7136 -74.8900 70° East 377 434 13,100 -1,814 Descending Boston Center
Sun 20:39:14 42.7275 -74.8286 73° East 372 428 12,300 -1,900 Descending Boston Center
Sun 20:39:49 42.7436 -74.7583 73° East 363 418 11,200 -1,300 Descending Boston Center
Sun 20:40:14 42.7569 -74.7164 67° East 365 420 11,000 -197 Descending Boston Center
Sun 20:40:50 42.7775 -74.6267 73° East 345 397 11,000  Level Boston Center
Sun 20:41:14 42.7889 -74.5761 73° East 353 406 11,000  Level Boston Center
Sun 20:41:51 42.7903 -74.5028 88° East 326 375 11,000 -200 Level Boston Center
Sun 20:42:14 42.7928 -74.4717 84° East 320 368 10,800 -1,400 Descending Boston Center
Sun 20:42:51 42.7964 -74.3953 86° East 271 312 9,600 -2,000 Descending Boston Center
Sun 20:43:14 42.7989 -74.3586 85° East 283 326 8,800 -1,869 Descending Boston Center
Sun 20:43:52 42.8019 -74.2964 86° East 266 306 7,700 -1,600 Descending Boston Center
Sun 20:44:14 42.8025 -74.2653 89° East 269 310 7,200 -1,770 Descending Boston Center
Sun 20:44:53 42.8078 -74.1975 84° East 257 296 5,900 -2,000 Descending Boston Center
Sun 20:45:14 42.8083 -74.1608 89° East 253 291 5,200 -1,800 Descending Boston Center
Sun 20:45:53 42.8133 -74.1044 83° East 248 285 4,100 -1,400 Descending Boston Center
Sun 20:46:14 42.8136 -74.0844 89° East 248 285 3,800 -1,082 Descending Boston Center
Sun 20:46:54 42.8167 -74.0139 87° East 240 276 3,000 -1,010 Descending Boston Center
Sun 20:47:55 42.8219 -73.9375 85° East 195 224 2,100 -545 Descending Boston Center
Sun 20:48:55 42.8292 -73.8669 82° East 164 189 1,900 -397 Descending Boston Center
Sun 20:49:56 42.8067 -73.8211 124° Southeast 121 139 1,300 -639 Descending Boston Center
Sun 20:50:57 42.7736 -73.8092 165° South 122 140 600 -689 Descending Boston Center

Login

Don't have an account? Register now (free) for customized features, flight alerts, and more!